Starlink 4789

operational
NORAD ID: 53868 Int'l Des: 2022-114 Owner: SPXS Country: US Constellation: starlink
LEOCIRCULAR

Starlink 4789について

説明を読み込み中...

リアルタイム位置

3D地球を読み込み中...

次回通過

高度履歴

Altitude vs Time

uPlot chart will show altitude changes over time

軌道要素

1 53868U 22114BC 26070.21197561 .00000802 00000-0 68501-4 0 9991
2 53868 53.2163 257.1988 0001312 88.4594 271.6548 15.08839112193629
Epoch: Mar 11, 2026 • Age: 37 hours

現在のステータス

高度 558.6 km
速度 7.58 km/s
衛星直下点 -51.67°S, 177.06°W
打ち上げ日 Sep 19, 2022
運用期間 3.4 years
タイプ internet

技術仕様

分類 Payload
質量 305.00 kg
乾燥質量 290.00 kg
総質量 305.00 kg
長さ 0.20 m
直径 2.80 m
スパン 9.00 m
形状 Box + pan
製造者 SPXS
バスタイプ Starlink
フェーズステータス In Orbit
所有者/国 SPXS/US

大規模コンステレーション

Loading constellations...